Location: ????????
(55.0097°N, 38.5678°E)
Time: 00:08:15
(UTC+00:00)

NOSS 3-1 (C) - Pass Details

Date: 24 December 2025
Orbit: 618 x 1583 km, 63.4° (Epoch: 10 January)

Event Time Altitude Azimuth Distance (km) Brightness Sun altitude
Rises 16:11:31 0° 237° (WSW) 3,027 7.1 -25.5°
Reaches altitude 10° 16:13:39 10° 239° (WSW) 2,189 6.2 -25.8°
Maximum altitude 16:18:36 74° 325° (NW) 853 3.2 -26.5°
Enters shadow 16:19:19 64° 18° (NNE) 921 3.2 -26.6°
